Date String (YYYY-MM-DD hh:mm:ss) UTC,Instrument flags,Ambient pressure (hPa),Sample flow (lpm),Bypass flow (lpm),Sample temperature (°C),Ambient temperature (°C),ASC tube jacket temperature (°C),LED temperature (°C),Box temperature (°C),Sample RH (%),Span deviation,Mass concentration (μg/m³),Mass concentration (μg/m³),Mass concentration (μg/m³)
DateTimeUTC,F1_M11,P_M11,Q1_M11,Q2_M11,T1_M11,T2_M11,T3_M11,T4_M11,T5_M11,U1_M11,ZSPAN_M11,X0_M11,X2_M11,X1_M11
2022-06-30 02:00:00,,0828.3,5.00,0.00,29.0,26.9,00.0,37.7,30.7,22.1,0000.0,0010.72,0004.78,0003.98
2022-06-30 02:01:00,,0828.3,5.01,0.00,28.9,26.7,00.0,37.6,30.6,22.7,0000.0,0010.85,0004.77,0003.97
2022-06-30 02:02:00,,0828.5,5.00,0.00,28.9,26.7,00.0,37.6,30.6,23.2,0000.0,0011.63,0004.80,0003.94
2022-06-30 02:03:00,,0828.4,5.00,0.00,28.8,26.8,00.0,37.6,30.7,23.5,0000.0,0012.60,0004.82,0003.92
2022-06-30 02:04:00,,0828.3,4.99,0.00,28.8,27.0,00.0,37.6,30.7,24.0,0000.0,0012.01,0004.85,0003.89
2022-06-30 02:05:00,,0828.3,4.99,0.00,28.8,27.2,00.0,37.6,30.8,24.4,0000.0,0012.07,0004.86,0003.84
2022-06-30 02:06:00,,0828.3,5.01,0.00,28.9,27.4,00.0,37.6,30.8,24.6,0000.0,0012.26,0004.87,0003.78
2022-06-30 02:07:00,,0828.4,5.00,0.00,28.9,27.6,00.0,37.7,30.9,24.8,0000.0,0011.29,0004.76,0003.72
2022-06-30 02:08:00,,0828.4,5.00,0.00,28.9,27.8,00.0,37.7,30.9,24.7,0000.0,0011.14,0004.71,0003.66
2022-06-30 02:09:00,,0828.4,5.00,0.00,28.9,27.9,00.0,37.7,31.0,24.7,0000.0,0011.24,0004.66,0003.61
2022-06-30 02:10:00,,0828.3,5.00,0.00,29.0,28.0,00.0,37.7,31.0,24.8,0000.0,0011.00,0004.56,0003.53
2022-06-30 02:11:00,,0828.4,5.01,0.00,29.0,28.1,00.0,37.7,31.1,24.9,0000.0,0011.53,0004.56,0003.45
2022-06-30 02:12:00,,0828.5,5.00,0.00,29.1,28.2,00.0,37.8,31.1,25.1,0000.0,0012.12,0004.54,0003.37
2022-06-30 02:13:00,,0828.3,5.01,0.00,29.1,28.3,00.0,37.8,31.1,25.2,0000.0,0013.08,0004.48,0003.31
2022-06-30 02:14:00,,0828.3,5.00,0.00,29.1,27.7,00.0,37.8,31.0,25.0,0000.0,0012.86,0004.45,0003.26
2022-06-30 02:15:00,,0828.3,5.00,0.00,29.1,27.2,00.0,37.7,30.9,25.1,0000.0,0013.07,0004.42,0003.19
2022-06-30 02:16:00,,0828.3,5.00,0.00,29.0,27.2,00.0,37.7,30.9,25.4,0000.0,0013.33,0004.38,0003.14
2022-06-30 02:17:00,,0828.4,5.00,0.00,29.0,27.3,00.0,37.7,30.9,25.6,0000.0,0013.19,0004.29,0003.09
2022-06-30 02:18:00,,0828.7,5.02,0.00,29.0,27.4,00.0,37.7,30.9,25.7,0000.0,0013.19,0004.28,0003.03
2022-06-30 02:19:00,,0829.0,5.00,0.00,29.0,27.6,00.0,37.8,30.9,25.9,0000.0,0012.92,0004.24,0002.94
2022-06-30 02:20:00,,0828.7,5.00,0.00,29.0,27.7,00.0,37.8,31.0,26.0,0000.0,0013.05,0004.19,0002.85
2022-06-30 02:21:00,,0829.1,5.00,0.00,29.1,27.9,00.0,37.8,31.0,26.1,0000.0,0013.56,0004.11,0002.78
2022-06-30 02:22:00,,0828.9,5.00,0.00,29.1,28.0,00.0,37.8,31.1,26.2,0000.0,0012.80,0003.96,0002.73
2022-06-30 02:23:00,,0829.0,5.01,0.00,29.1,28.1,00.0,37.8,31.1,26.2,0000.0,0012.20,0003.90,0002.68
2022-06-30 02:24:00,,0829.0,5.00,0.00,29.1,28.2,00.0,37.8,31.2,26.3,0000.0,0010.53,0003.83,0002.63
2022-06-30 02:25:00,,0829.1,4.99,0.00,29.2,28.1,00.0,37.9,31.2,26.3,0000.0,0009.64,0003.71,0002.60
2022-06-30 02:26:00,,0829.1,5.01,0.00,29.1,27.5,00.0,37.8,31.0,26.5,0000.0,0009.38,0003.63,0002.59
2022-06-30 02:27:00,,0829.3,5.00,0.00,29.1,27.1,00.0,37.8,30.9,27.0,0000.0,0009.31,0003.58,0002.60
2022-06-30 02:28:00,,0829.2,5.00,0.00,29.1,27.1,00.0,37.8,30.9,27.3,0000.0,0009.67,0003.57,0002.61
2022-06-30 02:29:00,,0829.3,5.01,0.00,29.1,27.2,00.0,37.8,30.9,27.7,0000.0,0009.72,0003.56,0002.62
2022-06-30 02:30:00,,0829.3,5.00,0.00,29.0,27.4,00.0,37.8,30.9,27.7,0000.0,0010.18,0003.64,0002.66
2022-06-30 02:31:00,,0829.3,5.00,0.00,29.1,27.5,00.0,37.8,31.0,27.7,0000.0,0010.27,0003.71,0002.71
2022-06-30 02:32:00,,0829.5,5.00,0.00,29.1,27.7,00.0,37.8,31.0,27.4,0000.0,0009.59,0003.80,0002.77
2022-06-30 02:33:00,,0829.5,4.99,0.00,29.1,27.8,00.0,37.8,31.0,28.0,0000.0,0009.71,0003.86,0002.80
2022-06-30 02:34:00,,0829.5,4.99,0.00,29.1,28.0,00.0,37.9,31.1,28.8,0000.0,0010.00,0003.92,0002.86
2022-06-30 02:35:00,,0829.5,4.99,0.00,29.1,28.1,00.0,37.9,31.1,29.2,0000.0,0010.79,0003.93,0002.89
2022-06-30 02:36:00,,0829.7,5.01,0.00,29.2,28.2,00.0,37.9,31.2,28.9,0000.0,0011.00,0003.97,0002.92
2022-06-30 02:37:00,,0829.8,5.00,0.00,29.2,28.2,00.0,37.9,31.2,28.8,0000.0,0012.82,0004.07,0003.00
2022-06-30 02:38:00,,0829.9,4.99,0.00,29.2,27.6,00.0,37.9,31.0,29.0,0000.0,0013.57,0004.11,0003.02
2022-06-30 02:39:00,,0830.1,5.00,0.00,29.1,26.7,00.0,37.8,30.8,29.2,0000.0,0014.78,0004.28,0003.09
2022-06-30 02:40:00,,0830.3,5.01,0.00,29.0,26.3,00.0,37.8,30.6,28.3,0000.0,0015.82,0004.52,0003.17
2022-06-30 02:41:00,,0830.4,5.00,0.00,28.9,26.4,00.0,37.8,30.6,28.3,0000.0,0016.07,0004.71,0003.24
2022-06-30 02:42:00,,0830.6,4.99,0.00,28.9,26.5,00.0,37.7,30.6,25.5,0000.0,0015.99,0004.76,0003.29
2022-06-30 02:43:00,,0830.5,5.00,0.00,28.8,26.7,00.0,37.7,30.7,25.5,0000.0,0015.84,0004.66,0003.26
2022-06-30 02:44:00,,0830.5,4.99,0.00,28.8,26.9,00.0,37.7,30.7,26.4,0000.0,0015.73,0004.60,0003.23
2022-06-30 02:45:00,,0830.4,4.99,0.00,28.9,27.1,00.0,37.7,30.7,27.4,0000.0,0015.74,0004.50,0003.19
2022-06-30 02:46:00,,0830.4,4.99,0.00,28.9,27.3,00.0,37.7,30.8,27.3,0000.0,0015.29,0004.45,0003.15
2022-06-30 02:47:00,,0830.4,4.99,0.00,28.9,27.5,00.0,37.7,30.8,27.7,0000.0,0014.91,0004.37,0003.08
2022-06-30 02:48:00,,0830.4,4.99,0.00,28.9,27.6,00.0,37.7,30.9,27.5,0000.0,0013.08,0004.24,0002.95
2022-06-30 02:49:00,,0830.3,5.01,0.00,28.9,27.7,00.0,37.7,30.9,27.3,0000.0,0012.17,0004.13,0002.85
2022-06-30 02:50:00,,0830.3,4.99,0.00,29.0,27.9,00.0,37.7,30.9,27.1,0000.0,0010.14,0003.86,0002.68
2022-06-30 02:51:00,,0830.3,5.00,0.00,29.0,28.0,00.0,37.7,31.0,26.5,0000.0,0008.85,0003.53,0002.46
2022-06-30 02:52:00,,0830.3,5.00,0.00,29.0,28.0,00.0,37.8,31.0,26.6,0000.0,0008.03,0003.18,0002.20
2022-06-30 02:53:00,,0830.3,4.99,0.00,29.1,28.1,00.0,37.8,31.1,26.4,0000.0,0007.66,0002.90,0001.99
2022-06-30 02:54:00,,0830.3,5.00,0.00,29.1,28.2,00.0,37.8,31.1,26.3,0000.0,0007.62,0002.89,0001.95
2022-06-30 02:55:00,,0830.3,5.00,0.00,29.1,28.2,00.0,37.8,31.2,26.5,0000.0,0007.64,0002.87,0001.91
2022-06-30 02:56:00,,0830.3,5.00,0.00,29.2,28.1,00.0,37.8,31.1,25.9,0000.0,0007.19,0002.84,0001.88
2022-06-30 02:57:00,,0830.2,5.00,0.00,29.1,27.4,00.0,37.8,30.9,25.6,0000.0,0006.34,0002.81,0001.86
2022-06-30 02:58:00,,0830.3,5.00,0.00,29.1,27.0,00.0,37.8,30.8,26.3,0000.0,0006.17,0002.77,0001.85
2022-06-30 02:59:00,,0830.2,5.02,0.00,29.0,26.9,00.0,37.8,30.8,25.4,0000.0,0005.35,0002.82,0001.84
